Regional Weather Roundup
Issued by NWS Wilmington, NC

Home | Current Version | Previous Version | Text Only | Print | Product List | Glossary On
Versions: 1 2 3 4 5 6 7 8 9 10 11 12 13 14 15 16 17 18 19 20 21 22 23 24 25 26 27 28 29 30 31 32 33 34 35 36 37 38 39 40 41 42 43 44 45 46 47 48 49 50
000
ASUS42 KILM 070413
RWRILM
RWRILM
REGIONAL HOURLY WEATHER ROUNDUP
NATIONAL WEATHER SERVICE WILMINGTON NC
1200 AM EDT THU MAY 07 2015

NOTE: "FAIR" INDICATES FEW OR NO CLOUDS BELOW 12,000 FEET WITH NO
SIGNIFICANT WEATHER AND/OR OBSTRUCTIONS TO VISIBILITY.

...............WFO WILMINGTON COUNTY WARNING AREA...............

......COASTAL NC AND SC COUNTIES......

CITY           SKY/WX    TMP DP  RH WIND       PRES   REMARKS
WILMINGTON     CLOUDY    65  58  78 NE7       30.11F
N MYRTLE BEACH CLOUDY    66  58  75 NE8       30.10F
MYRTLE BEACH   CLOUDY    66  55  68 N10       30.12S

......INLAND NC AND SC COUNTIES.......

CITY           SKY/WX    TMP DP  RH WIND       PRES   REMARKS
LUMBERTON      MOCLDY    58  55  90 CALM      30.13F
ELIZABETHTOWN  CLOUDY    62  58  86 CALM      30.14S
WHITEVILLE     CLOUDY    61  57  86 N3        30.12F
FLORENCE       PTCLDY    64  55  72 NE7       30.12F
DARLINGTON     PTCLDY    61  54  77 N3        30.15S

....................REST OF NORTH CAROLINA......................

.........EASTERN NC.........

CITY           SKY/WX    TMP DP  RH WIND       PRES   REMARKS
CAPE HATTERAS  CLOUDY    64  56  75 E6        30.15S
JACKSONVILLE   CLOUDY    63  55  77 N6        30.15R
MOREHEAD CITY  CLOUDY    67  60  78 NE3       30.12F
KENANSVILLE    CLOUDY    59  57  91 CALM      30.16S
NEW BERN       CLOUDY    64  59  83 NE8       30.16R
ELIZABETH CITY CLOUDY    63  58  83 E5        30.18S

.........CENTRAL NC.........

CITY           SKY/WX    TMP DP  RH WIND       PRES   REMARKS
RALEIGH DURHAM CLOUDY    66  53  63 SE7       30.17S
ROCKY MOUNT    CLOUDY    60  56  86 CALM      30.17S
ROANOKE RAPIDS NOT AVBL
FAYETTEVILLE   CLOUDY    61  54  77 N5        30.15S
HOFFMAN        PTCLDY    59  53  81 CALM      30.18F

.........WESTERN NC.........

CITY           SKY/WX    TMP DP  RH WIND       PRES   REMARKS
CHARLOTTE      PTCLDY    70  51  51 SE5       30.15F
GREENSBORO     MOCLDY    67  54  63 S5        30.16S
HICKORY        NOT AVBL
BOONE          NOT AVBL
ASHEVILLE      NOT AVBL

.....................REST OF SOUTH CAROLINA.....................

.........EASTERN SC.........

CITY           SKY/WX    TMP DP  RH WIND       PRES   REMARKS
CHARLESTON     PTCLDY    63  57  81 N6        30.09F
BEAUFORT MCAS  MOCLDY    65  61  87 N5        30.09S
HILTON HEAD    CLOUDY    68  63  83 N6        30.09F

.........CENTRAL SC.........

CITY           SKY/WX    TMP DP  RH WIND       PRES   REMARKS
COLUMBIA       PTCLDY    60  53  77 CALM      30.11F
ORANGEBURG     MOCLDY    62  56  80 NE3       30.11F
SUMTER SHAW    MOCLDY    60  53  76 NE5       30.11S

.........WESTERN SC.........

CITY           SKY/WX    TMP DP  RH WIND       PRES   REMARKS
GREENVILLE     NOT AVBL
ROCK HILL      PTCLDY    59  58  96 CALM      30.15F
ANDERSON       PTCLDY    61  55  81 CALM      30.14F
CLEMSON        NOT AVBL
GREENWOOD      PTCLDY    59  56  89 CALM      30.14F


...................COASTAL AND OFFSHORE REPORTS..................

................LOCAL PIERS AND NC RESERVE................


STATION/POSITION TIME  SKY/WX   TEMP    WIND        PRES    VSBY
                                AIR SEA DIR/SP/G
                 (UTC)          (F)     (DEG/KT/KT) (MB)    (MI)
JOHNY MRCER PIER 0300            69 71   40/ 15/ 17 1019.1F
NC RESRV MASNBRO NOT AVBL
OCEAN CREST PIER 0402            66 70  350/  6/  9 1018.3F
SPRINGMAID  PIER 0300            68 72  350/  9/ 11 1019.4F


................COASTAL AND OFFSHORE BUOYS................


STATION/POSITION TIME  SKY/WX   TEMP    WIND        PRES    VSBY
                                AIR SEA DIR/SP/G
                 (UTC)          (F)     (DEG/KT/KT) (MB)    (MI)
DIMNDSHOAL 41025 0350            71 75  100/ 17/ 21 1020.3F
WVE H/P(F/S)=  6/ 7 WND WVE H/P(F/S)=  5/ 7 SWL H/P/D(F/S/D)=  2/120/ 8

CAPE LOOKOUT     0400            69      80/ 13/ 14 1019.6F
ONSLOW BAY 41036 NOT AVBL
5 WRITEBCH 41038 0308            69 68   50/ 16/ 19 1019.1F
MASONBORO  41110 0319               68                N/A
WVE H/P(F/S)=  6/ 8 WND WVE H/P(F/S)=  5/ 8 SWL H/P/D(F/S/D)=  2/150/11

WILM HARBR 41108 0311               67                N/A
WVE H/P(F/S)=  5/10 WND WVE H/P(F/S)=  5/10 SWL H/P/D(F/S/D)=  2/170/11

27WRITEBCH 41037 0300            68 71   70/ 16/ 19   N/A
FRYING PAN 41013 0350            71 72   60/ 19/ 23 1018.0F
WVE H/P(F/S)=  7/ 9 WND WVE H/P(F/S)=  7/ 8 SWL H/P/D(F/S/D)=  3/160/ 9

SUNST NRSH 41024 0308            69      30/ 12/ 16 1019.1F
CAPRS NRSH 41029 NOT AVBL
EDISTO     41004 0350            71 74   20/ 23/ 25 1016.1F
WVE H/P(F/S)=  9/ 9 WND WVE H/P(F/S)=  7/ 7 SWL H/P/D(F/S/D)=  5/ 9



..........OFFSHORE BUOYS BEYOND 100 NM OFFSHORE...........
.....IN A TRIANGLE---HAT TO BERMUDA TO BAHAMAS TO HAT.....


STATION/POSITION TIME  SKY/WX   TEMP    WIND        PRES    VSBY
                                AIR SEA DIR/SP/G
                 (UTC)          (F)     (DEG/KT/KT) (MB)    (MI)
150E HAT   41001 NOT AVBL
W BERMUDA  41048 0350            71 71  120/ 16/ 19 1021.2F
WVE H/P(F/S)=  4/ 7 WND WVE H/P(F/S)=  3/ 7 SWL H/P/D(F/S/D)=  2/ 30/11

ATLANTIC S 41049 0350            76 77  120/ 12/ 16 1022.4F
WVE H/P(F/S)=  5/ 8 WND WVE H/P(F/S)=  3/ 6 SWL H/P/D(F/S/D)=  5/ 50/ 8

E BAHAMAS  41046 0350            80 80  130/ 10/ 12 1019.2F
WVE H/P(F/S)=  5/ 7 WND WVE H/P(F/S)=  2/ 4 SWL H/P/D(F/S/D)=  5/ 80/ 7

NE BAHAMAS 41047 0350            78 78  150/ 14/ 16 1018.3F
WVE H/P(F/S)=  6/ 8 WND WVE H/P(F/S)=  3/ 5 SWL H/P/D(F/S/D)=  5/130/ 8

120E CANVRL41010 0320            74 77  320/ 16/ 19 1014.7R

END


USA.gov is the U.S. government's official web portal to all federal, state and local government web resources and services.